Theta_e
340 337 335 335 335 335 336 336 336 336 337 337 337 337 336 336 335 335 334 333 332 332 332 331 331 331 331 332 333 333 333 334 334 332 332 333 334 334 334 334 333 332 333 332 332 332 332 332 332 332 332 332 332 332 332 331 330 331 331 330 330 330 330 331 330 329 329 329 328 329 329 329 329 329 329 329 329 329 329 328 329 329 328 328 328
338 336 335 335 334 335 335 335 336 336 336 337 336 336 336 336 335 335 334 333 332 332 332 331 331 331 331 332 333 333 333 334 334 332 331 333 334 334 333 333 333 332 332 332 332 332 332 332 333 333 332 332 332 331 331 331 330 331 331 330 330 329 330 330 329 329 329 328 328 328 327 327 327 328 328 329 328 328 329 328 329 329 329 328 328
337 336 335 335 334 334 335 335 335 335 335 336 336 336 335 336 335 335 334 333 332 331 331 332 331 332 332 332 332 332 332 333 333 332 332 333 333 333 333 333 333 333 332 332 332 332 332 332 333 333 332 332 331 331 331 331 330 331 330 330 330 329 330 329 329 329 330 329 328 328 327 326 326 327 327 327 327 327 327 328 328 328 328 328 327
338 337 335 334 334 334 334 335 334 335 335 335 336 335 335 335 334 334 334 332 331 329 330 332 332 332 332 332 332 332 332 332 333 333 333 333 334 334 334 333 333 333 333 333 333 333 333 333 333 333 332 332 331 331 331 331 331 331 331 331 330 330 330 330 329 329 329 329 329 329 328 328 327 326 326 325 326 327 326 327 327 327 327 326 326
338 337 335 334 334 334 334 334 334 334 335 335 335 335 335 335 334 333 333 332 331 330 330 331 332 332 332 332 332 332 332 332 333 333 333 334 335 335 334 334 334 334 333 333 333 333 333 332 332 333 332 332 332 332 331 331 331 331 331 331 331 330 330 331 330 328 328 329 329 329 328 329 327 325 326 325 325 325 325 326 326 326 326 325 325
337 336 335 335 334 334 334 334 334 334 334 334 335 335 335 334 334 333 332 332 332 331 331 331 332 332 332 332 333 333 333 333 333 334 333 334 334 334 334 333 333 333 333 333 332 332 332 332 332 332 332 331 332 332 331 331 331 331 331 330 330 330 331 332 330 328 327 327 327 328 328 328 327 325 326 326 325 325 324 325 326 326 325 324 323
337 336 335 334 334 334 334 333 334 334 334 334 334 334 334 334 333 333 333 332 332 331 331 331 332 333 333 333 334 334 333 333 333 333 333 333 333 334 333 333 332 333 333 333 332 332 332 332 331 331 331 331 332 332 331 331 331 331 330 330 330 329 330 332 331 328 328 327 326 327 327 328 327 326 326 326 325 324 324 324 324 324 324 322 321
336 336 334 334 334 333 333 333 333 333 333 333 333 334 334 333 334 333 332 331 331 330 331 332 333 333 333 333 334 334 334 333 333 332 333 333 333 333 333 333 333 333 333 332 332 332 332 332 331 331 331 331 331 331 331 331 330 330 330 330 329 329 329 332 331 329 329 328 327 327 327 327 326 327 327 326 325 324 323 324 323 323 322 321 319
335 335 334 334 334 333 333 332 333 333 333 332 332 332 333 333 333 332 331 330 330 330 331 332 333 333 333 333 333 333 332 332 332 332 333 333 333 332 332 332 332 332 332 331 331 331 331 331 331 331 331 331 331 331 331 331 330 329 330 330 329 329 329 330 330 328 328 328 327 327 326 326 325 326 327 327 326 324 323 323 323 323 322 321 318
335 334 334 334 333 333 332 332 332 332 332 332 332 332 332 332 331 330 330 330 330 331 332 333 333 333 333 332 332 331 331 331 332 333 333 333 332 331 331 332 331 331 330 330 330 330 330 331 331 331 331 331 331 331 331 331 330 329 329 330 330 329 328 329 329 328 328 328 327 327 326 325 325 326 327 327 327 326 324 323 323 323 322 321 318
335 334 335 334 333 332 332 332 332 332 332 332 332 331 331 331 331 330 329 329 330 331 332 333 333 333 332 331 330 330 330 331 333 333 332 331 331 330 330 330 329 329 328 327 328 328 328 329 330 331 331 331 331 331 331 331 330 329 329 328 329 329 328 328 328 328 328 327 327 327 326 326 326 326 326 326 326 327 325 323 323 322 322 321 317
335 335 334 333 332 332 332 332 332 332 332 331 331 331 330 330 330 329 329 330 330 332 332 333 333 333 332 330 330 330 330 331 332 331 330 329 328 328 328 328 327 326 326 325 325 325 325 326 327 328 330 331 331 330 331 332 331 330 329 328 327 328 328 328 328 329 329 328 329 328 325 325 327 326 326 326 327 327 325 324 323 322 321 320 315
335 335 334 333 332 332 332 332 332 332 332 331 331 330 329 330 330 330 330 331 331 332 333 333 333 333 331 330 329 329 330 330 330 329 327 326 326 326 326 326 325 325 324 324 324 324 324 324 325 326 328 330 330 329 331 332 331 330 330 329 328 328 328 328 328 329 329 329 330 328 325 324 325 325 325 326 327 327 326 324 323 322 321 318 314
335 335 334 332 331 330 332 332 332 332 331 331 331 330 329 330 330 330 330 331 331 332 333 333 333 331 329 329 329 328 328 328 328 327 324 323 323 323 324 324 324 324 324 324 324 324 323 323 323 324 327 329 328 328 329 331 331 331 330 329 329 329 328 328 328 329 330 330 330 329 327 325 324 323 323 325 326 326 326 324 322 322 321 318 314
335 335 334 332 330 330 331 332 332 332 332 331 331 329 329 330 330 331 331 331 332 332 334 333 332 330 329 329 328 325 325 325 325 324 323 323 323 323 323 323 323 324 324 324 323 323 323 324 324 324 326 327 327 327 328 329 330 331 330 329 329 329 329 328 328 328 328 329 329 329 328 326 324 322 322 323 325 325 325 324 323 322 320 318 316
335 335 334 332 331 330 331 332 332 332 331 331 331 330 329 330 330 331 331 331 332 333 334 332 331 329 328 329 328 325 324 324 323 323 323 323 323 323 323 323 324 324 324 324 323 323 324 324 325 325 326 327 326 326 326 327 328 329 330 329 328 328 328 327 327 327 327 327 328 328 328 327 324 322 322 322 324 324 324 323 323 322 319 317 317
335 335 334 332 331 331 331 332 332 332 331 331 331 330 329 329 330 331 330 331 333 333 332 332 331 329 328 329 328 325 324 324 324 324 324 324 324 323 323 324 324 323 323 324 323 323 323 323 323 324 325 325 325 325 325 326 327 328 329 328 327 328 328 327 327 327 326 327 327 327 328 328 325 322 321 321 322 322 322 322 322 321 318 316 317
335 334 333 332 332 331 331 332 332 332 331 331 330 330 329 329 329 330 330 331 332 332 332 331 330 329 328 328 329 326 325 325 324 324 324 325 324 324 324 324 323 322 322 323 323 322 322 322 322 323 323 324 324 325 326 327 328 328 328 328 328 328 327 327 327 326 326 326 327 327 328 328 326 324 321 320 320 321 321 322 321 320 318 316 316
336 335 334 332 332 331 331 331 331 331 331 331 330 329 329 329 329 330 330 331 331 331 331 330 328 328 327 328 329 327 326 326 325 325 325 325 324 324 324 323 322 321 322 323 323 322 322 321 322 323 324 325 326 327 327 327 328 328 328 327 327 327 327 326 326 325 325 326 327 327 328 328 327 325 321 319 320 321 320 320 320 318 316 316 317
334 335 335 333 331 330 331 331 331 331 331 330 330 329 329 329 329 329 330 330 329 328 328 327 327 327 327 327 328 328 326 326 325 324 325 325 324 324 323 322 321 322 322 323 323 322 321 320 321 323 325 327 327 327 327 327 327 327 327 326 325 325 325 324 323 323 325 327 327 327 328 327 326 325 322 319 319 320 320 320 319 317 314 313 315
331 331 332 331 329 328 330 331 331 330 330 329 329 329 329 329 329 329 329 328 327 326 325 326 326 327 327 327 328 328 327 325 324 323 324 324 324 323 323 322 322 322 323 323 323 322 320 320 321 323 325 326 326 326 326 327 326 325 323 321 319 318 318 319 320 322 324 325 325 326 327 327 326 325 322 319 318 319 318 319 318 317 314 311 313
327 327 328 328 327 327 329 330 329 329 329 328 328 329 329 328 328 328 328 327 326 325 325 324 325 326 326 326 327 326 325 323 323 323 324 324 323 323 323 322 322 323 323 323 322 321 319 320 322 323 323 324 324 324 324 322 319 317 316 314 313 313 314 316 317 318 318 319 319 320 321 323 326 326 324 321 320 320 318 318 317 317 315 312 312
324 325 326 326 327 327 328 328 327 327 328 328 328 329 328 328 327 327 327 326 325 325 324 324 324 324 324 324 324 324 322 321 322 322 323 323 323 323 322 322 323 323 323 322 322 320 319 319 322 323 322 322 322 322 321 318 315 315 314 313 312 313 314 315 315 315 315 315 315 315 315 317 320 324 325 324 323 322 319 316 316 316 315 314 312
321 322 323 324 325 326 327 327 325 326 327 328 328 329 328 328 327 327 327 326 325 325 325 324 322 322 322 322 322 321 320 320 320 321 322 322 322 322 322 322 322 321 321 321 321 320 319 318 319 320 320 319 318 319 319 318 318 318 318 315 313 313 314 314 314 314 314 315 314 314 314 315 316 319 321 323 324 324 321 317 315 315 315 314 313
316 318 319 321 322 324 326 327 326 326 327 327 328 328 327 327 327 326 326 326 325 325 325 324 322 321 321 320 320 320 320 320 320 321 321 321 322 322 322 321 319 318 319 320 319 319 318 318 317 317 317 316 316 316 316 317 318 317 317 316 314 313 313 313 313 313 314 314 315 315 314 315 316 316 317 318 320 322 321 318 315 315 315 314 314
312 313 314 315 316 319 323 325 325 325 325 327 327 327 327 326 326 326 325 324 324 323 323 323 322 321 320 320 320 320 320 321 320 320 321 321 322 322 321 319 317 317 317 316 316 316 316 316 316 315 315 315 314 314 314 315 316 315 314 314 315 314 313 314 313 313 312 313 315 315 314 314 316 317 317 317 317 318 320 319 316 315 315 314 314
309 310 310 310 312 315 318 322 323 323 323 325 325 325 325 325 325 325 324 323 322 322 321 321 320 320 320 320 320 320 320 320 321 321 321 322 322 321 319 317 316 315 314 313 313 313 314 314 314 314 313 313 312 312 312 313 314 313 312 313 315 315 315 314 314 313 313 313 314 315 315 315 315 315 316 316 316 317 319 319 317 315 315 314 313
308 308 308 309 309 311 314 318 321 322 322 322 323 323 323 324 325 325 323 322 322 321 321 320 319 319 319 319 320 320 320 320 320 321 321 320 320 319 318 317 316 314 312 313 313 312 312 313 313 313 313 312 311 311 311 312 312 312 312 312 313 315 315 314 314 314 314 314 314 314 314 314 314 314 314 314 315 315 315 315 315 314 314 314 313
307 307 307 307 307 309 310 313 315 317 317 317 318 320 321 322 322 322 321 321 320 320 320 319 319 320 320 319 319 320 320 320 320 320 319 318 318 318 317 317 316 313 313 314 313 313 313 312 312 312 312 312 312 312 312 312 312 312 313 312 312 313 315 315 315 315 315 315 315 314 314 314 314 314 314 313 313 314 314 314 314 314 314 314 313
306 306 306 305 306 307 308 309 311 312 311 311 312 315 317 318 319 320 320 319 319 319 319 319 319 319 319 319 319 319 320 320 320 319 318 316 316 316 316 316 315 314 314 313 314 315 316 315 313 312 311 311 312 312 312 312 312 312 313 313 313 313 314 315 315 316 316 315 315 315 315 314 314 314 313 313 312 312 313 313 313 314 314 314 313
305 305 305 304 305 306 307 307 308 308 308 308 309 310 312 313 314 315 317 318 318 318 317 317 317 318 318 318 318 318 318 318 318 318 317 316 316 315 315 315 315 314 314 314 316 318 318 316 314 312 311 311 311 312 312 312 312 313 312 313 313 313 314 314 315 315 315 315 315 315 314 314 314 314 313 312 312 312 312 312 313 313 313 314 314
304 304 304 303 303 304 305 305 305 306 306 306 307 307 307 308 308 309 311 315 316 315 314 314 314 315 316 315 315 316 316 316 316 316 316 316 316 316 316 316 316 316 316 317 318 318 316 314 314 314 313 313 313 313 312 312 312 313 313 313 313 313 313 313 313 314 314 314 314 314 314 313 313 313 313 313 313 312 312 313 313 313 313 314 314
304 304 303 303 303 303 303 303 303 304 304 304 304 304 304 304 304 305 307 308 309 309 309 309 309 310 311 311 312 313 313 313 313 313 314 315 315 315 315 315 315 316 317 318 318 318 317 316 315 315 314 314 315 315 315 314 314 314 314 314 314 314 314 314 314 314 313 313 313 313 313 313 313 313 313 313 313 313 313 313 314 314 314 315 315
303 303 303 303 303 302 302 302 302 302 302 302 302 302 302 302 303 304 304 304 303 304 304 304 304 305 306 307 308 309 308 308 307 308 309 310 311 309 309 310 311 312 313 313 314 315 316 316 315 314 314 314 314 315 317 317 316 316 316 315 315 315 315 315 315 314 315 314 314 315 315 315 315 315 314 315 315 315 314 313 314 314 314 315 315
303 303 303 303 302 302 302 301 301 301 301 301 301 301 301 301 301 302 302 302 302 302 302 302 302 303 303 304 305 305 304 304 304 305 304 304 304 303 304 305 306 306 306 306 307 308 309 310 311 311 312 312 311 312 314 316 317 318 318 318 318 318 318 318 317 317 317 316 316 316 316 316 316 316 315 315 315 315 316 315 315 315 315 315 315
302 303 303 303 302 302 301 301 301 301 301 300 300 300 301 300 301 300 300 301 301 301 301 301 301 302 302 303 304 304 304 304 304 304 303 302 301 301 301 301 302 302 302 302 302 302 302 303 304 306 307 307 306 307 310 312 313 315 316 317 318 318 319 319 319 319 319 319 319 319 319 318 318 317 317 317 316 315 315 316 316 316 316 316 316
302 302 302 302 302 301 301 301 300 300 300 300 300 300 300 300 300 300 300 300 300 300 300 300 300 300 301 302 303 303 304 304 305 306 305 304 304 303 302 301 300 301 300 300 299 299 300 300 300 302 303 303 303 304 305 306 308 309 311 312 312 313 314 315 315 316 317 317 318 319 319 320 320 319 319 319 318 317 317 317 317 317 317 317 317
301 302 301 301 301 301 300 300 300 300 300 300 300 300 299 299 299 299 299 299 299 299 299 299 299 299 300 300 300 300 301 301 302 304 304 304 305 306 304 303 301 300 300 299 299 298 299 299 299 299 299 300 300 301 301 302 303 304 305 306 306 306 307 308 309 310 311 311 313 314 315 316 317 318 319 319 319 318 317 318 318 318 318 318 318
301 301 301 301 301 301 301 300 300 300 299 299 300 299 299 298 298 298 298 298 298 298 298 298 298 298 298 298 299 300 300 299 298 299 300 300 302 303 304 304 303 302 302 301 300 300 299 298 298 298 298 299 298 299 299 300 300 301 301 302 302 302 302 303 304 305 306 306 307 308 309 310 311 312 315 316 317 318 317 317 318 319 319 319 319
299 300 300 300 300 300 300 300 299 299 299 299 299 298 298 298 298 297 297 297 297 297 297 297 297 297 298 297 298 299 299 298 298 298 298 298 298 299 300 301 300 301 301 302 302 302 300 298 298 298 297 298 298 298 298 298 298 299 299 299 299 299 299 300 300 301 302 303 303 304 304 305 306 307 308 310 313 315 316 316 317 318 318 319 319
299 299 299 299 299 299 299 299 299 299 298 298 298 298 298 298 298 298 297 297 297 297 297 297 297 297 297 297 297 297 297 297 297 297 297 297 297 297 298 298 298 298 298 299 300 300 300 299 298 297 297 297 297 297 297 297 297 297 297 298 298 298 298 298 298 300 301 302 303 302 301 301 302 303 304 305 307 309 312 313 314 316 316 317 317
299 299 299 299 299 299 299 299 299 299 298 298 298 298 298 298 298 298 297 296 297 296 296 297 297 297 296 296 296 296 296 296 296 297 297 297 297 297 297 297 297 297 297 297 297 297 298 298 297 297 296 296 296 297 296 297 297 296 297 297 297 297 297 297 297 299 300 300 301 300 299 299 300 301 302 303 303 304 306 309 311 313 315 315 315
299 298 298 298 298 298 298 298 299 298 298 298 298 298 298 298 297 297 297 296 296 296 296 296 296 296 296 296 296 296 295 296 296 296 296 296 296 297 296 296 297 297 297 298 297 297 297 297 297 297 296 296 296 296 296 296 296 296 296 296 296 296 296 296 296 297 297 297 297 297 297 297 298 299 300 301 302 303 303 304 306 308 311 313 314
299 298 298 298 298 298 298 298 298 298 298 297 298 298 298 298 297 296 296 296 296 295 295 295 295 296 296 296 296 296 295 295 295 295 296 296 296 296 296 296 296 297 297 298 297 297 297 298 298 297 296 296 295 295 295 296 296 296 295 295 296 296 296 296 296 296 296 296 296 296 296 297 297 298 299 300 301 302 302 302 303 304 306 310 312
298 298 298 298 298 298 297 297 297 297 297 297 297 297 297 297 297 296 296 296 296 296 296 296 296 296 296 296 296 296 296 296 295 295 295 295 295 295 296 296 296 296 297 297 297 297 297 297 297 297 297 296 295 295 295 295 295 295 295 295 295 295 295 295 295 296 296 296 296 296 296 296 297 297 298 300 301 301 301 301 302 303 305 308 311
298 298 298 298 298 298 298 298 297 297 297 297 297 297 297 297 297 296 296 295 295 296 296 296 296 296 296 296 297 297 296 295 295 295 295 294 294 294 295 295 295 296 296 296 296 296 296 297 297 297 296 296 296 295 295 295 295 295 295 295 295 295 296 296 295 296 296 296 296 296 296 297 297 297 298 299 300 301 301 301 302 302 304 307 310
298 298 298 298 298 298 298 298 298 297 297 297 297 297 297 297 297 296 296 295 295 295 295 295 296 296 296 296 296 296 296 295 295 295 295 294 294 294 294 295 295 295 295 295 295 295 295 296 296 296 296 296 296 295 295 295 295 295 295 295 295 295 295 295 296 296 296 295 295 296 296 297 298 298 298 299 300 301 301 301 302 302 303 306 308
298 297 298 298 298 298 298 298 298 297 297 297 297 297 297 297 297 296 296 295 295 296 296 296 296 296 296 296 296 295 295 295 295 295 294 294 294 294 295 294 294 294 294 295 295 295 295 295 295 295 295 296 296 296 296 295 295 294 294 294 294 295 295 295 295 295 295 295 295 296 297 298 299 299 300 300 300 301 302 302 302 302 303 304 306
297 297 298 298 298 298 298 298 298 298 297 297 297 297 297 297 297 296 296 296 296 296 296 296 296 296 296 296 296 295 295 295 295 295 294 294 293 294 294 294 294 293 293 293 294 295 295 295 295 295 295 295 296 296 295 295 294 294 295 295 295 295 295 295 295 295 295 295 295 296 297 298 299 300 299 299 300 300 300 301 301 301 302 302 303
297 297 297 297 297 297 297 297 297 297 298 298 297 297 297 297 297 297 296 296 296 296 296 296 296 297 296 296 296 295 294 294 294 295 295 294 294 294 294 294 294 293 293 293 293 294 294 294 294 295 295 294 295 295 295 294 295 295 295 296 296 296 296 295 296 295 295 296 296 296 297 298 299 299 299 299 299 299 299 300 300 300 300 301 302
297 297 297 297 297 297 297 297 297 297 297 298 298 297 297 297 297 297 297 296 296 297 297 297 296 296 296 296 295 295 294 294 294 294 295 295 295 295 295 294 294 294 294 294 294 294 294 294 293 293 294 294 294 295 294 295 295 295 295 296 297 297 297 296 296 296 296 296 296 296 297 298 298 298 298 298 298 298 298 299 299 299 299 300 300
Wind_Speed
11 15 14 14 14 13 13 14 15 16 15 13 14 17 17 17 19 20 19 18 20 18 16 16 15 15 16 15 14 13 12 11 9 10 11 9 7 7 8 8 9 9 9 9 8 8 8 9 9 9 8 7 6 7 7 6 7 6 7 9 10 12 12 12 16 17 14 13 12 12 12 10 9 9 8 7 6 6 5 4 4 4 5 5 7
10 12 13 14 14 14 15 14 15 16 15 14 14 16 19 19 20 21 20 18 20 18 15 16 14 14 15 14 13 11 11 10 9 11 10 8 8 8 9 10 10 10 10 9 9 9 9 10 10 10 8 7 7 7 8 7 7 7 8 11 11 13 13 14 19 18 13 12 13 13 11 11 11 11 10 9 7 6 5 5 5 5 6 7 7
10 11 13 14 15 15 15 14 15 16 15 15 14 15 17 18 18 21 20 17 20 20 16 14 13 12 12 12 12 11 10 9 9 10 10 9 9 9 10 11 10 10 9 9 8 9 10 11 11 11 9 8 8 9 8 8 8 8 10 12 12 12 13 14 18 17 14 13 12 10 7 7 9 10 11 9 8 7 6 6 6 6 7 7 7
12 12 12 13 15 15 14 14 15 15 15 15 14 15 16 15 16 18 18 17 20 22 18 13 11 11 9 9 10 9 8 8 8 9 10 10 10 10 10 9 9 9 9 8 8 8 9 11 11 11 10 9 9 9 9 9 9 10 10 12 14 14 13 13 13 15 17 14 8 6 5 5 5 8 10 9 8 8 7 6 7 8 9 8 9
13 12 12 13 14 15 14 14 15 15 15 14 14 15 16 14 14 16 17 18 20 20 18 13 11 11 9 9 9 8 7 8 8 8 9 9 9 9 9 8 8 8 8 8 8 8 9 10 10 11 10 9 9 8 9 9 9 10 11 13 15 15 15 13 11 16 18 11 6 6 4 3 5 9 10 7 7 9 8 7 8 9 10 10 10
12 12 12 13 15 15 15 15 16 15 15 15 14 14 17 16 14 15 15 17 18 16 16 14 13 12 12 12 12 10 9 8 8 8 9 8 8 9 8 7 7 7 6 7 7 7 8 9 10 9 9 9 9 8 8 9 9 11 12 14 16 16 16 14 12 17 17 9 7 6 0 2 9 12 8 5 7 8 8 8 9 9 10 10 10
12 12 12 13 15 16 15 16 16 15 16 17 15 12 16 19 17 15 15 15 15 14 16 16 14 13 13 13 12 11 11 9 9 8 7 7 7 8 7 6 7 6 6 6 7 7 7 9 9 8 8 8 9 9 9 10 10 11 12 14 16 16 17 14 12 16 14 7 8 5 2 6 14 12 7 7 7 6 7 8 8 8 9 10 10
11 12 13 13 15 16 16 16 16 16 17 18 17 13 15 19 18 16 15 14 14 14 16 16 14 14 13 13 12 11 11 10 8 8 8 8 7 7 7 7 8 7 7 7 7 7 8 9 9 8 8 8 9 9 9 10 11 11 12 14 15 17 17 13 12 15 13 8 8 4 1 11 14 8 9 10 7 6 7 7 7 7 8 10 10
11 12 12 14 16 17 16 16 16 16 17 17 17 15 14 17 17 15 13 13 14 15 16 15 13 13 13 14 15 13 12 11 8 8 8 8 8 8 8 8 9 9 8 8 7 7 7 9 9 8 8 9 10 9 9 10 11 12 14 15 16 16 15 12 12 17 17 12 9 6 6 12 11 7 9 11 9 8 7 7 7 8 8 9 9
10 11 11 14 16 16 16 16 17 16 15 15 15 16 16 17 16 14 13 14 15 15 15 14 15 15 15 18 18 15 14 12 9 8 8 7 8 9 8 8 7 8 8 8 8 8 7 8 9 9 9 9 10 10 10 11 12 13 15 15 15 15 13 11 12 16 18 15 11 8 10 12 10 8 9 10 9 8 7 10 11 9 8 6 6
9 10 11 14 16 16 16 17 17 16 15 14 14 15 17 18 16 14 15 17 17 15 15 16 17 17 18 19 19 17 16 14 12 10 9 9 9 9 9 9 9 9 9 9 9 8 8 7 8 8 8 9 10 10 11 11 12 14 15 14 14 13 12 13 13 13 16 17 12 9 10 12 11 9 10 11 10 9 9 10 11 10 9 6 5
9 9 11 13 14 15 16 16 16 17 16 16 15 15 17 19 17 16 17 18 18 17 17 19 19 19 19 19 18 16 16 16 15 14 12 12 12 13 12 12 11 10 10 9 9 8 7 7 7 8 7 8 9 10 10 11 12 13 14 16 17 15 13 14 14 13 15 16 14 11 11 10 8 7 10 12 10 11 13 11 11 11 8 6 6
10 9 10 12 12 13 16 17 17 18 18 17 17 16 18 19 18 18 19 18 18 19 19 19 19 19 19 18 17 16 15 16 16 16 15 15 15 15 14 13 12 11 10 9 8 7 6 5 6 7 8 8 9 10 10 10 11 11 12 15 15 14 13 13 14 15 15 15 14 13 11 9 7 6 10 11 10 12 14 13 12 10 8 8 7
10 8 9 11 10 10 15 17 17 18 19 18 18 17 18 19 19 19 18 17 18 21 20 19 20 19 19 19 17 16 17 17 18 18 17 17 16 15 14 13 12 11 9 9 7 6 5 4 4 6 8 8 9 10 10 9 9 9 10 12 11 10 11 13 14 13 13 13 13 12 10 9 8 7 11 13 13 14 14 14 13 9 7 9 7
11 9 9 11 13 12 15 17 17 18 19 19 18 18 18 19 19 18 17 18 20 22 22 21 20 21 20 19 18 18 19 18 19 19 18 18 16 15 13 12 11 10 9 7 6 6 5 3 4 7 9 8 8 9 8 8 8 8 8 9 10 10 11 12 12 11 11 12 13 12 10 9 9 8 10 13 13 14 15 17 16 10 6 6 6
10 10 10 13 16 16 16 17 17 18 19 19 18 18 18 17 17 16 16 19 23 23 23 22 22 22 21 20 19 20 20 20 20 20 18 17 15 14 12 11 10 9 8 7 6 6 5 4 5 8 9 8 7 7 7 7 7 7 8 8 9 10 9 9 9 9 9 10 12 12 9 8 8 8 10 13 13 14 17 19 17 13 9 6 5
10 10 11 13 15 16 17 18 19 19 19 19 18 18 17 15 15 14 14 19 24 23 22 22 22 22 21 20 20 21 20 20 20 20 19 17 14 13 12 11 10 9 7 8 7 7 5 5 5 7 8 7 7 6 6 6 7 8 8 8 7 8 8 8 8 8 8 8 10 11 9 9 9 8 10 14 14 15 18 18 14 12 11 8 5
10 9 10 12 14 17 18 18 19 19 19 18 18 16 15 14 14 15 17 21 24 23 22 23 22 22 22 21 21 22 20 19 19 19 18 17 15 13 13 12 10 8 8 8 8 7 5 4 3 4 6 6 6 6 5 6 7 8 8 8 7 7 7 8 8 8 8 8 9 10 10 10 10 10 10 12 14 15 17 17 14 11 9 9 9
8 9 10 11 13 16 17 17 18 19 19 18 17 16 15 15 16 17 20 23 23 23 23 22 22 22 21 21 22 22 20 19 18 18 17 16 15 14 13 12 11 9 9 9 8 7 5 3 3 3 4 6 7 6 5 6 7 8 8 7 7 7 8 8 9 9 9 9 10 11 12 12 12 11 11 12 13 15 17 17 16 14 10 9 11
3 6 8 10 11 12 14 16 17 19 19 18 18 18 17 15 16 19 21 22 22 22 22 21 21 20 20 21 22 21 19 17 16 16 17 16 15 14 13 11 11 10 9 9 8 6 4 3 4 4 5 7 6 6 5 6 7 7 7 7 7 7 8 8 9 8 9 10 11 12 13 14 14 13 13 13 14 15 17 17 17 17 12 10 11
2 2 4 8 11 11 11 15 17 18 19 19 19 18 16 15 17 19 20 21 22 22 22 21 21 19 19 20 20 19 17 15 14 15 17 16 15 13 12 11 10 10 10 9 7 5 4 4 5 5 6 7 7 6 7 7 7 7 7 7 7 7 8 8 8 9 9 10 11 11 13 14 14 14 14 15 15 15 17 17 17 16 14 12 12
4 5 6 8 12 15 14 15 17 18 18 19 20 18 15 17 19 20 21 23 23 22 22 22 21 21 20 20 19 18 16 14 14 15 16 16 14 13 12 11 10 10 9 8 7 6 5 5 6 6 7 8 7 8 8 8 7 7 7 7 6 6 7 8 9 9 9 9 9 9 11 12 14 15 15 15 15 15 16 17 17 15 14 14 13
5 5 6 8 13 20 20 16 18 19 18 19 21 19 17 20 21 21 23 23 22 22 22 22 22 21 21 21 19 18 16 15 15 15 15 14 13 12 12 11 10 9 9 8 7 7 6 5 6 7 6 6 7 7 7 7 7 7 7 7 7 7 8 9 8 8 7 6 6 6 6 9 13 16 17 16 15 15 14 15 16 16 15 16 15
7 5 5 5 4 12 15 15 17 18 19 21 22 21 21 23 23 22 22 23 22 21 20 21 21 21 21 21 20 18 17 16 15 14 14 13 12 12 12 10 9 9 9 9 8 7 6 6 6 6 6 5 5 5 6 6 6 5 6 7 7 7 8 8 8 7 6 5 5 4 3 4 8 13 17 18 17 16 15 14 16 17 17 17 17
8 8 7 7 5 1 7 15 20 20 19 21 21 21 23 23 22 22 22 22 22 20 19 20 20 20 20 19 18 17 16 16 15 14 13 13 13 13 12 10 9 9 9 8 7 7 7 7 7 6 6 5 5 4 4 5 5 5 5 6 7 7 7 7 6 5 5 4 4 3 2 2 4 7 12 16 18 17 17 16 16 17 18 18 18
9 9 8 8 7 5 3 9 17 17 16 18 20 22 22 20 19 21 21 20 20 19 19 19 19 19 18 17 17 17 16 16 15 14 13 13 14 13 11 10 9 9 9 7 7 7 8 8 8 7 7 5 4 4 4 4 5 5 5 5 6 8 8 7 6 4 4 4 3 4 4 4 3 4 7 10 13 15 15 16 17 17 17 19 19
8 8 9 9 8 8 8 7 12 15 14 16 19 18 18 20 21 21 20 20 20 20 19 18 16 15 14 14 15 16 15 14 14 14 14 15 14 13 11 10 9 9 8 7 6 7 7 8 8 7 7 5 4 4 4 4 4 4 4 4 5 6 7 6 5 4 4 5 5 5 5 5 4 3 4 5 7 10 11 13 14 15 15 17 17
9 10 11 11 9 8 10 11 12 16 15 15 15 14 17 23 24 22 22 22 21 20 20 18 14 13 12 12 13 14 13 13 13 13 13 13 13 12 10 9 9 8 7 6 5 5 6 7 7 6 6 5 4 4 4 4 4 4 4 4 5 6 6 5 5 5 5 6 6 6 5 4 4 3 3 3 4 6 8 10 11 12 12 13 13
11 12 12 11 9 8 11 13 15 17 17 16 16 14 15 18 17 17 19 20 20 20 20 19 17 15 14 13 13 14 14 13 13 13 11 8 8 10 9 9 9 8 7 5 4 4 4 5 6 5 5 5 4 3 4 5 6 5 4 4 6 6 6 5 5 5 5 5 6 6 5 5 5 4 4 4 5 6 7 9 10 11 12 12 12
12 12 11 10 9 9 11 15 17 17 18 19 21 19 18 19 17 17 18 18 20 21 22 21 20 18 17 15 14 15 16 14 12 10 8 6 6 8 9 8 8 8 6 5 4 3 4 5 5 5 4 5 5 4 4 6 6 5 4 4 5 7 7 6 6 6 6 6 6 6 6 6 5 6 5 5 6 7 8 9 10 10 11 12 13
11 11 10 9 9 9 11 15 17 17 19 20 22 22 22 22 21 20 20 20 20 22 22 22 21 19 18 17 16 17 17 16 13 11 9 8 8 8 9 8 7 7 6 6 4 4 5 6 5 4 4 3 3 3 2 4 5 5 4 4 4 5 6 7 7 7 6 7 7 7 7 7 7 7 7 7 7 8 9 10 10 10 10 11 12
10 11 11 10 10 9 11 15 16 19 21 21 22 24 24 24 24 23 23 24 24 24 24 24 22 20 19 19 19 19 19 18 17 15 13 11 10 10 10 9 8 8 7 6 5 5 7 8 7 7 6 5 4 2 1 1 2 3 3 3 3 3 4 5 6 6 6 7 8 8 9 9 9 10 10 10 10 10 11 11 11 12 12 11 12
10 11 11 11 11 11 15 17 18 20 22 23 27 29 26 26 29 29 29 28 27 27 28 27 26 25 23 23 22 23 23 22 20 19 18 16 14 14 14 14 13 12 11 10 9 9 11 11 11 10 9 8 7 5 3 1 1 2 3 3 3 3 4 4 5 5 6 7 8 9 10 10 11 11 10 11 12 12 13 13 13 13 14 13 14
10 10 11 11 12 15 20 22 20 21 23 26 31 32 29 29 33 34 33 33 32 31 30 30 29 28 28 27 27 27 27 26 25 24 23 21 20 19 19 19 18 16 15 15 14 13 13 13 12 11 11 10 8 6 4 2 0 1 2 3 4 5 5 6 7 7 8 9 10 10 11 12 13 13 12 12 12 13 14 15 15 16 17 17 17
10 10 11 11 13 17 21 23 21 21 24 26 29 30 30 32 36 37 35 35 35 33 32 32 30 29 29 29 29 29 29 28 27 26 26 25 24 23 22 21 20 19 19 18 17 16 16 15 14 12 12 11 10 8 5 3 1 0 1 2 3 4 4 5 6 7 8 9 10 11 12 13 14 14 15 14 13 14 14 15 16 17 18 19 19
9 10 11 12 12 16 19 22 22 24 26 28 28 29 30 30 32 35 35 34 34 33 31 31 30 28 27 27 27 27 27 25 25 25 24 23 23 23 21 20 20 19 18 18 18 17 16 15 13 12 12 12 10 8 6 4 2 1 0 1 2 3 3 4 5 7 8 8 9 10 10 12 13 13 14 13 13 13 14 15 17 18 19 20 21
10 11 12 12 13 17 20 22 24 26 27 30 32 33 34 32 30 32 34 33 33 32 29 28 28 27 26 24 24 23 22 20 19 19 19 18 18 18 17 16 17 17 17 16 16 16 15 14 13 12 11 10 9 7 6 5 4 3 2 2 3 3 4 5 6 7 8 8 9 10 10 12 12 12 12 12 12 12 13 14 15 16 18 20 22
10 10 12 13 15 18 21 23 24 25 25 29 34 37 38 35 33 33 33 31 29 27 26 26 25 24 23 22 21 21 20 19 18 16 15 13 11 10 11 12 13 14 14 14 13 13 13 13 13 12 10 9 9 8 7 7 7 6 6 6 7 7 7 7 8 9 9 9 10 11 11 12 12 12 13 13 12 12 12 13 13 14 14 16 20
11 11 12 13 14 17 21 24 25 24 24 27 31 35 35 32 31 33 33 30 27 25 25 24 23 22 21 20 19 18 17 17 18 17 16 14 10 8 6 5 6 6 7 7 8 9 10 10 10 10 9 8 8 9 9 9 9 10 9 9 9 10 10 11 11 12 12 12 13 12 12 12 12 12 14 14 13 13 12 12 12 13 15 16 17
12 13 13 14 14 16 18 20 21 22 24 27 30 33 31 28 27 29 29 28 26 25 24 23 22 21 21 20 19 18 16 14 15 15 15 14 13 10 7 5 5 4 3 3 3 5 7 7 8 9 9 8 8 8 9 10 11 11 11 11 10 10 11 12 12 13 14 14 14 14 14 14 13 14 15 15 15 14 13 12 12 13 16 17 16
12 14 15 16 16 17 18 17 17 18 22 25 28 29 27 24 24 24 23 22 22 22 22 21 21 21 21 20 19 18 17 15 14 13 12 12 12 11 9 8 8 7 6 5 3 3 4 4 5 7 8 8 7 7 8 9 9 10 11 10 10 9 10 11 12 11 11 11 11 12 15 16 15 15 16 17 18 17 16 15 15 15 17 17 17
14 15 17 17 17 17 18 17 15 15 17 19 23 24 22 21 21 20 19 19 20 20 19 19 19 19 19 18 18 17 16 15 14 13 13 12 10 9 9 8 8 7 7 7 6 3 2 2 4 5 6 8 8 8 9 10 10 11 11 11 11 10 11 12 12 12 11 11 12 15 17 18 18 17 17 18 19 20 20 20 20 20 19 18 19
12 14 17 20 19 19 18 18 16 17 18 20 22 21 19 19 20 19 19 20 20 20 20 19 18 18 17 17 17 17 16 15 14 13 12 11 10 8 8 8 7 6 5 5 5 4 4 3 3 5 7 9 10 10 10 11 11 11 12 12 12 12 13 13 14 15 15 15 17 19 20 20 21 20 20 20 20 21 22 23 24 24 22 20 20
10 11 16 20 21 20 20 19 18 19 21 22 23 21 19 19 19 19 19 20 20 19 20 20 19 19 18 17 16 16 15 14 13 13 11 10 8 7 6 6 6 5 4 3 4 4 4 4 5 7 9 11 13 13 12 12 12 12 12 12 12 12 13 13 14 15 16 17 18 20 21 22 23 23 23 24 24 23 24 23 24 24 22 21 21
9 10 14 17 19 19 19 18 18 19 20 21 21 21 20 18 18 18 18 18 17 17 17 16 16 15 14 14 14 13 13 13 12 11 10 9 8 7 5 5 4 4 3 2 3 3 4 4 5 6 7 10 12 14 14 14 13 13 12 12 12 12 12 14 15 15 16 17 19 20 20 21 23 23 24 25 25 25 25 25 24 23 21 20 22
9 11 13 15 16 16 16 16 16 17 19 19 18 19 19 17 17 17 17 17 17 16 15 15 14 13 12 12 11 11 11 11 11 10 9 9 9 7 6 5 4 3 3 3 3 3 4 4 5 6 7 9 10 12 14 15 16 16 16 15 14 13 13 14 16 17 17 18 20 21 21 21 22 23 23 24 25 25 26 26 26 23 21 21 23
9 11 13 13 12 12 12 13 14 15 17 18 18 17 17 16 15 15 15 16 16 15 14 14 13 13 12 12 11 11 11 10 10 10 9 8 8 7 6 6 5 4 4 4 4 5 5 6 6 7 8 9 9 11 12 14 15 17 18 18 18 18 17 17 18 19 19 21 22 23 23 22 21 20 21 22 24 24 24 25 23 19 17 20 23
10 11 12 12 11 10 11 11 11 12 13 15 15 15 15 15 14 13 13 14 14 13 13 13 12 11 11 11 11 11 10 9 10 10 9 9 8 8 7 7 7 6 5 5 6 6 7 7 8 8 9 9 10 10 11 13 15 16 18 19 19 20 19 19 20 21 22 23 24 25 25 23 18 15 15 16 17 18 18 18 17 14 13 17 20
10 10 12 12 11 11 11 11 10 9 9 10 11 12 12 13 13 12 12 12 12 12 12 12 11 11 11 10 10 10 10 9 10 10 10 10 11 10 9 8 8 7 6 6 7 7 7 8 8 9 9 10 10 10 12 14 16 17 17 18 19 19 19 20 21 22 22 23 24 24 23 19 15 13 13 13 13 13 14 14 14 14 15 15 16
10 10 11 11 11 11 11 11 9 7 6 6 6 7 9 10 11 11 11 11 11 10 10 10 10 9 9 9 9 9 10 10 10 10 10 10 12 13 11 10 9 7 6 6 6 6 6 6 7 8 8 8 10 13 15 16 17 16 16 17 17 17 18 20 20 19 18 19 19 17 15 13 12 12 12 12 12 12 13 14 14 15 17 18 17
11 11 11 11 10 10 10 9 8 7 5 4 4 5 7 8 9 9 9 9 8 8 7 7 7 7 8 8 7 8 9 9 9 9 9 9 9 10 11 12 11 8 6 5 5 5 5 5 5 7 8 8 9 12 14 15 16 16 16 15 15 16 16 17 17 16 15 15 14 12 12 11 10 10 11 12 12 13 14 15 15 15 16 18 19
Wind_Direction
173 156 159 164 166 173 180 182 186 192 194 187 185 187 186 193 201 203 205 202 192 182 173 171 175 183 187 183 180 182 185 185 183 190 195 199 202 198 197 197 195 195 196 193 188 185 184 181 183 190 190 180 177 174 171 173 173 168 158 152 150 149 148 143 142 134 118 111 108 105 101 101 107 107 108 111 119 128 122 125 129 121 110 97 95
164 156 156 164 168 171 178 182 182 186 191 190 184 185 188 194 201 202 201 200 194 186 177 177 180 182 186 184 180 180 185 184 187 193 195 202 205 201 197 194 194 195 194 195 193 196 193 186 189 194 192 180 173 170 170 173 174 170 158 154 155 154 150 147 149 145 130 123 118 109 100 95 96 92 88 91 101 110 114 118 119 117 109 100 98
168 166 160 164 168 171 175 181 187 187 187 190 187 182 184 189 195 199 198 195 194 191 184 183 184 183 184 183 180 178 183 186 188 192 196 203 202 195 193 191 194 194 190 193 197 203 201 195 194 193 191 184 175 170 171 176 175 175 167 157 153 153 150 152 158 155 140 135 131 123 121 111 102 93 81 79 91 99 102 107 105 108 109 105 100
174 170 163 163 166 171 174 178 186 185 181 187 188 182 184 186 186 193 196 192 193 195 191 184 178 179 177 175 176 175 179 182 182 189 197 201 197 192 191 191 196 194 187 189 193 195 198 200 198 192 189 187 181 175 174 177 178 179 175 164 156 151 153 159 166 160 147 143 139 125 140 147 125 111 94 77 84 91 88 93 97 103 105 104 100
178 172 165 163 165 169 173 177 181 178 174 181 183 183 187 185 180 185 192 191 191 194 192 182 172 173 165 160 167 168 173 177 178 188 194 195 196 193 190 190 194 191 184 184 185 189 192 194 194 191 190 190 184 181 179 181 183 184 180 175 167 158 158 162 161 160 157 153 145 129 143 157 137 136 121 90 85 86 82 91 96 101 103 101 98
180 176 169 166 166 168 171 176 180 175 173 179 180 178 183 185 182 179 182 187 191 194 191 186 178 173 166 163 169 171 175 181 184 187 188 187 193 193 189 185 182 178 176 175 178 191 195 187 189 194 194 192 188 184 183 184 186 189 189 186 180 168 163 162 161 168 168 163 158 154 205 157 148 152 145 109 101 90 79 87 92 98 101 98 95
176 176 172 169 167 168 170 174 179 176 174 180 180 173 179 187 188 182 183 189 191 190 186 183 178 175 173 173 175 175 175 178 182 181 181 182 183 184 182 172 167 168 170 173 178 189 190 185 190 196 192 192 191 185 185 187 187 191 194 193 189 180 171 165 162 170 176 181 180 188 309 155 153 155 153 143 131 105 85 85 88 97 100 96 90
174 175 173 170 168 169 170 172 177 177 174 177 179 176 176 183 189 189 190 191 187 182 179 177 176 175 176 176 176 176 173 168 170 172 172 173 171 169 171 167 167 171 173 175 179 182 183 185 190 191 188 189 189 186 185 187 187 189 195 200 199 190 180 168 156 168 184 196 191 201 187 159 156 149 149 148 143 131 116 98 91 95 97 96 91
178 179 174 169 169 169 168 169 175 176 172 174 182 186 179 180 185 185 183 182 181 179 177 178 179 176 176 178 176 175 173 165 160 164 163 162 164 163 165 167 166 167 168 169 172 173 176 183 186 184 184 184 187 189 187 188 190 192 197 202 204 200 189 175 169 180 191 195 189 179 148 155 154 135 139 139 136 144 141 130 122 112 103 92 86
179 178 175 169 165 164 164 167 173 173 167 167 180 189 184 181 180 174 174 179 181 179 177 179 181 180 181 181 177 173 172 168 157 157 160 157 159 158 159 160 158 158 156 157 161 164 166 174 180 180 180 184 189 194 194 192 193 194 197 200 207 210 204 197 197 198 199 199 197 183 156 156 157 146 146 141 136 141 141 144 145 135 121 100 84
177 174 172 165 158 158 162 166 170 168 161 160 174 185 184 183 179 172 177 182 181 180 180 181 183 185 185 182 178 174 172 169 160 157 159 157 156 154 153 152 150 150 150 150 152 153 157 162 170 177 181 186 190 194 195 193 193 194 196 199 205 210 210 212 217 217 212 208 208 199 177 173 175 170 166 158 147 142 140 145 149 139 128 119 111
172 170 165 157 154 158 162 163 165 163 162 164 171 179 181 181 178 175 179 183 183 183 184 184 184 185 185 182 181 179 174 171 166 161 160 159 158 153 151 150 150 150 149 149 149 145 149 155 166 177 183 188 191 192 192 192 194 193 194 199 202 203 206 212 219 222 217 211 211 211 202 194 191 181 170 166 159 150 145 145 148 145 136 129 131
168 165 159 157 158 161 161 161 164 164 166 168 170 175 177 178 178 176 179 183 183 184 187 188 186 185 184 183 182 179 176 173 169 165 163 163 161 157 156 156 156 155 152 151 150 145 148 152 166 181 185 186 186 186 187 190 190 188 192 198 200 200 203 209 217 220 216 212 213 213 214 211 204 188 175 169 156 148 145 142 147 152 145 138 140
167 163 158 151 145 158 165 162 165 170 171 171 171 175 177 177 177 177 179 182 182 185 189 190 187 185 185 185 183 180 178 176 171 169 167 166 165 165 165 164 161 160 159 158 156 155 159 163 173 182 181 176 175 177 180 185 189 188 189 192 194 198 205 212 216 218 217 218 217 216 219 219 210 197 185 178 163 153 149 144 145 145 139 141 143
167 165 164 147 141 163 172 164 169 175 174 174 174 176 177 177 177 178 179 181 183 187 191 191 189 188 187 186 185 182 179 177 174 172 171 169 170 171 172 171 170 169 168 165 159 155 159 161 166 172 170 164 164 168 174 181 189 190 185 186 192 197 205 211 210 210 217 222 222 219 219 218 214 201 190 185 174 164 159 153 150 146 139 144 149
167 164 166 152 150 167 172 168 173 177 177 178 176 176 177 176 178 180 182 182 186 191 193 194 193 190 189 189 187 185 181 178 176 175 174 173 173 174 174 175 175 177 177 170 157 146 137 128 137 155 161 160 160 164 173 183 189 189 185 187 194 194 195 199 198 202 212 218 218 214 207 209 212 201 192 191 184 176 171 165 160 157 154 153 157
170 164 164 155 154 166 170 171 177 179 180 179 176 176 174 173 177 180 183 186 190 195 197 198 197 193 193 193 191 189 187 183 180 177 177 178 178 174 172 171 173 176 175 167 157 144 130 119 126 146 158 164 168 169 176 184 187 187 187 191 192 189 188 190 191 197 205 208 208 203 196 202 206 198 196 195 192 187 182 176 171 167 163 160 161
166 157 154 152 160 169 170 174 179 181 180 177 174 174 172 174 179 179 184 190 192 197 201 202 200 198 199 199 196 195 193 190 186 181 180 182 182 177 172 170 168 165 164 162 157 146 135 128 132 150 164 172 174 172 172 172 172 174 178 183 185 183 183 185 186 192 201 203 196 191 188 193 197 195 196 196 193 193 189 184 183 181 173 167 165
160 159 158 157 164 171 172 174 178 180 179 174 169 171 176 179 181 182 188 192 194 198 203 205 203 204 204 202 200 199 198 196 192 187 185 186 185 180 176 173 166 159 158 161 161 154 142 141 154 156 162 165 162 160 160 157 157 163 170 178 181 177 179 185 188 192 198 195 188 185 183 185 189 191 193 193 192 193 193 193 195 194 188 179 172
132 165 161 149 147 161 173 176 178 179 177 171 168 173 181 183 182 186 190 192 195 198 201 203 203 204 204 202 202 202 202 201 197 192 189 189 188 184 182 177 168 161 160 163 164 159 142 149 166 155 145 152 152 151 153 151 155 161 169 177 177 174 178 186 190 190 189 185 184 184 183 183 184 187 190 191 191 194 196 200 202 200 198 191 181
95 131 142 133 132 149 177 182 178 177 173 168 167 171 176 181 184 188 190 191 194 197 198 198 197 198 199 200 202 203 204 203 197 192 189 189 189 189 187 181 173 167 166 167 164 157 146 157 165 148 133 139 142 143 145 146 150 156 162 167 168 169 176 182 184 182 180 181 184 187 188 187 186 188 192 192 193 197 199 204 208 202 200 199 191
117 125 133 133 137 157 182 183 166 164 165 160 160 162 167 180 185 187 189 191 193 195 195 194 192 193 195 196 197 199 198 196 190 187 187 189 190 192 189 182 177 173 169 166 159 151 145 149 155 144 127 127 129 131 134 136 138 137 138 144 146 151 160 164 167 168 171 177 181 186 191 193 193 194 194 195 199 202 200 203 210 206 202 203 198
82 104 122 129 149 165 173 164 147 150 155 153 155 162 172 183 187 187 189 191 193 195 194 192 191 190 190 189 189 190 189 187 186 186 188 190 190 190 187 180 177 173 167 162 152 146 142 136 142 145 134 128 130 132 133 135 132 124 121 127 134 141 146 147 150 154 158 163 162 164 175 185 194 198 199 201 204 207 203 202 210 213 211 212 209
49 56 74 75 145 176 167 148 141 151 160 158 159 167 177 184 186 186 188 190 193 194 192 190 188 186 184 184 184 184 184 184 184 184 187 189 187 184 181 177 175 168 161 158 151 147 147 140 138 142 140 133 131 136 142 146 143 133 128 131 138 147 149 144 142 143 145 148 148 141 132 157 183 194 202 206 208 212 213 209 213 219 222 225 224
36 36 39 35 13 270 165 153 156 165 171 165 161 167 174 178 180 182 185 188 190 191 190 188 187 183 180 179 179 178 179 181 183 184 184 182 179 175 173 170 167 159 154 157 157 154 154 154 150 148 145 140 132 133 141 149 152 145 139 143 152 160 160 152 145 142 144 148 154 157 152 163 173 181 194 203 208 213 217 217 219 222 225 233 236
35 36 32 25 16 12 60 141 152 159 164 160 161 170 169 164 168 176 179 178 179 181 181 179 180 177 171 171 171 171 174 178 180 180 176 172 169 168 165 162 159 153 149 152 157 156 154 156 158 156 153 147 142 143 143 149 157 151 144 150 161 166 165 157 150 150 159 171 177 179 183 182 169 164 174 186 198 207 214 219 224 225 228 236 241
38 44 41 27 18 25 37 73 119 130 137 148 155 161 155 151 160 169 171 170 170 170 167 163 161 157 152 155 159 161 164 169 172 172 168 166 166 163 157 154 153 150 147 147 149 152 155 157 159 159 155 150 146 150 149 149 159 163 165 172 175 170 166 162 157 156 168 180 182 181 178 168 151 143 156 166 184 201 212 221 228 233 236 242 244
45 49 50 39 22 28 43 57 92 109 116 128 136 139 146 155 164 168 167 168 167 164 161 158 152 144 138 140 144 145 145 145 148 152 155 160 163 159 153 154 154 151 151 152 152 152 157 163 166 166 165 163 154 148 150 156 161 168 182 196 196 183 173 168 167 166 168 172 175 177 179 177 169 167 182 193 204 218 225 230 234 238 242 247 247
49 52 53 46 30 34 50 58 72 86 91 95 99 106 124 137 146 151 153 157 157 150 146 146 145 143 140 138 135 133 134 132 132 139 146 152 155 156 157 161 163 161 160 162 162 162 167 172 173 171 171 175 174 163 161 166 167 166 169 182 193 195 192 182 174 178 181 178 178 181 184 188 193 195 202 212 222 230 235 240 243 243 244 248 246
51 52 51 45 38 44 61 68 70 73 75 80 84 90 100 105 111 123 135 144 145 138 133 133 135 135 137 138 134 132 136 142 147 153 160 158 148 153 161 167 170 172 176 177 179 189 196 191 184 180 175 178 185 183 172 173 176 176 170 167 176 190 199 200 198 201 205 204 204 205 208 213 220 226 232 236 235 233 233 236 240 243 246 249 246
57 57 53 45 40 42 56 66 70 72 74 80 87 90 93 95 98 106 120 133 135 129 124 124 125 129 132 131 130 129 130 134 141 146 150 146 140 143 150 158 166 170 177 185 192 201 193 179 170 166 161 164 176 182 183 190 194 194 190 180 175 184 196 205 214 218 220 220 221 225 230 235 243 249 255 258 256 251 245 241 239 239 242 245 244
56 57 55 51 44 39 51 60 67 74 78 84 88 87 85 88 91 95 106 119 123 120 115 113 115 120 123 120 122 123 120 117 120 123 125 127 128 128 130 132 135 138 145 153 155 154 148 138 132 129 124 117 111 98 85 245 234 227 224 214 203 202 201 208 218 224 229 234 237 244 249 254 260 266 270 273 272 268 260 253 247 243 242 243 243
56 56 57 58 54 49 55 60 63 71 79 84 86 84 83 87 93 94 96 101 104 105 105 105 108 110 112 112 113 114 112 108 107 109 112 115 116 113 110 109 109 112 117 118 118 121 123 122 122 120 114 107 99 87 79 58 270 261 262 259 258 261 256 254 255 252 254 257 260 265 268 271 274 275 278 279 278 274 266 259 254 250 248 248 248
62 58 56 56 59 63 65 64 65 71 80 84 85 86 86 88 91 93 91 90 90 92 94 96 99 102 104 106 107 106 104 102 101 100 101 103 103 99 97 98 98 99 99 98 99 103 107 111 114 114 112 107 96 86 86 92 98 259 267 271 273 275 279 279 280 281 281 282 284 286 286 287 288 287 287 286 285 281 275 269 264 261 259 258 256
62 60 58 51 54 65 70 69 68 72 79 83 85 88 88 86 88 90 89 89 89 87 87 88 90 94 98 101 102 101 99 99 99 97 93 93 93 89 89 91 91 90 88 86 86 88 91 94 97 101 104 99 90 84 86 91 98 174 247 258 263 268 274 277 278 279 281 282 284 285 286 287 288 288 288 288 288 287 284 279 274 270 269 266 263
57 55 58 56 59 70 78 80 78 77 79 83 86 89 88 84 85 87 87 88 87 85 84 84 83 84 88 92 95 97 95 95 98 97 91 86 84 81 81 84 86 86 82 78 78 77 78 81 82 86 89 86 80 75 72 72 73 68 268 259 264 273 280 283 283 281 278 278 278 279 280 279 279 281 282 282 284 286 286 282 277 274 274 271 268
58 55 61 68 76 82 85 87 87 84 84 86 88 90 88 85 85 85 84 85 84 82 81 81 80 80 80 81 84 88 90 91 95 97 93 86 79 74 73 76 80 81 76 69 65 65 65 67 67 69 72 71 66 57 46 39 28 14 6 352 339 329 316 307 303 299 295 293 290 285 284 283 281 281 281 280 280 280 282 282 277 274 274 272 272
62 66 73 76 82 88 90 90 89 87 88 90 90 89 87 85 85 86 86 85 84 84 84 82 81 80 80 80 80 80 81 81 82 87 90 89 84 76 72 71 72 74 72 64 56 51 49 47 46 49 51 51 47 36 23 14 4 356 355 355 352 347 337 326 318 313 311 310 306 302 300 297 294 291 289 288 286 282 280 278 274 272 270 268 271
67 77 86 85 85 90 92 92 90 90 91 91 89 88 87 86 85 86 87 86 87 89 90 89 87 87 86 87 85 81 77 75 75 78 79 79 81 83 80 66 59 67 73 65 48 35 30 27 25 26 27 31 29 18 6 358 352 345 344 344 344 340 333 326 318 312 308 305 303 303 303 302 301 297 291 287 284 282 278 273 269 267 262 260 264
68 80 91 93 91 91 89 87 88 93 96 95 92 91 90 89 88 86 86 88 90 90 91 92 92 91 88 86 85 85 84 79 77 79 78 75 74 74 72 59 42 39 38 32 16 359 359 5 9 10 11 15 17 10 1 353 345 340 337 336 335 331 325 320 315 310 306 303 301 300 298 295 294 293 290 286 281 276 271 267 264 260 258 257 259
75 87 93 92 91 92 90 89 91 94 96 96 95 93 91 89 88 85 86 92 94 93 93 92 90 89 87 85 84 86 88 84 80 79 80 78 74 71 71 68 59 52 43 36 24 323 305 313 328 341 355 4 8 7 1 355 348 343 340 340 341 336 328 323 318 312 309 308 307 307 305 301 297 292 288 285 282 277 271 264 257 253 253 255 257
81 90 95 95 93 92 92 94 96 98 99 98 95 93 91 88 86 86 90 96 96 95 95 92 88 86 85 84 84 84 84 82 78 76 75 73 68 66 69 68 63 59 53 50 52 47 10 323 307 318 340 352 356 358 354 349 347 344 341 341 341 335 328 326 324 320 318 317 317 317 315 310 306 301 295 288 283 280 276 271 265 261 258 258 261
75 84 94 97 95 93 93 95 97 100 102 100 95 93 90 87 86 89 94 95 93 93 93 92 90 88 86 84 84 82 80 77 74 73 71 67 62 60 60 60 59 57 52 47 44 36 27 14 342 338 345 346 345 348 347 343 342 340 336 334 332 327 325 324 323 320 319 318 318 317 314 309 306 304 301 297 291 286 282 279 276 273 266 260 263
69 80 95 97 94 92 93 95 97 99 99 97 95 95 92 90 92 94 94 91 89 89 90 89 89 88 86 84 81 76 73 71 68 67 68 64 58 54 51 49 48 45 41 32 20 9 2 350 340 342 346 345 342 340 338 334 331 330 330 329 327 323 320 318 315 314 314 314 314 311 308 306 303 299 297 296 294 292 289 286 284 281 273 263 260
78 85 96 97 95 95 94 93 94 96 95 93 94 96 96 97 100 100 97 94 92 90 88 86 86 85 83 81 77 72 67 64 61 60 58 52 44 40 39 37 33 32 32 20 6 358 348 341 342 343 345 345 342 340 340 338 334 332 332 329 324 320 316 312 310 310 308 308 309 307 305 305 302 298 295 292 291 291 291 288 286 284 276 262 257
91 95 99 98 96 95 93 91 91 93 93 91 90 93 96 100 101 99 96 94 92 90 88 85 82 79 76 73 72 68 64 59 55 52 49 43 38 37 37 36 30 25 25 18 8 1 354 351 352 349 344 343 341 342 345 345 344 342 340 337 332 327 321 315 312 310 310 310 310 309 309 308 303 298 294 289 287 287 288 288 287 283 273 261 256
106 108 110 105 99 94 91 90 90 92 93 92 91 92 94 95 94 94 95 94 93 90 88 84 78 73 68 63 59 56 53 49 44 41 40 39 40 42 44 42 34 23 19 16 9 4 1 358 353 348 344 341 336 338 343 346 345 342 337 335 333 330 326 322 318 316 317 316 314 315 317 316 310 302 295 290 287 285 285 286 285 282 273 264 259
127 127 123 116 108 104 102 100 100 101 100 98 97 96 95 91 87 86 88 91 90 88 85 83 78 71 66 60 55 51 47 40 34 32 33 33 32 35 40 42 38 29 18 9 7 7 4 360 354 347 343 337 332 335 339 338 334 329 325 323 322 322 321 320 318 317 317 316 315 317 319 318 312 302 296 293 290 287 285 284 283 280 274 270 266
142 139 133 127 120 115 109 105 105 109 108 106 104 102 98 92 85 81 81 84 85 84 80 75 70 64 58 54 52 49 43 36 31 31 36 36 35 36 39 36 32 31 26 17 15 13 7 359 351 344 340 333 326 324 324 322 320 319 318 315 313 311 310 309 310 313 314 313 313 315 316 315 308 298 295 294 292 292 293 290 287 285 281 276 271
152 144 139 136 132 126 120 113 111 114 118 120 123 119 108 98 88 81 79 83 86 85 79 71 65 58 52 49 50 48 42 36 33 33 34 34 35 38 41 39 36 39 44 43 35 25 13 358 341 330 325 319 314 315 317 319 319 317 316 314 310 307 304 303 305 309 308 306 307 307 305 303 297 292 292 292 293 297 298 295 294 293 290 285 279
158 152 147 144 138 134 130 121 112 109 113 124 150 156 137 115 97 86 82 84 86 85 79 72 67 61 55 55 59 54 46 40 36 31 25 22 24 29 33 36 38 41 49 52 48 42 26 0 335 320 316 319 325 326 324 323 320 315 312 311 310 309 307 305 305 304 299 296 295 292 291 292 288 285 286 288 291 295 296 295 295 293 290 289 286